Home   Weather   Breda   Past weeks

Flag for Netherlands Past Weather in Breda, Netherlands — Yesterday and Last 2 Weeks

Now
46 °F

Overcast.


Feels Like: 44 °F
Forecast: 37 / 60 °F
Wind: 6 mph from Northwest

Location: Gilze-Rijen

Current Time: Apr 23, 2017 at 10:12:59 am

Latest Report: Apr 23, 2017 at 8:55 am


Visibility: N/A

Pressure: 30.33 "Hg

Humidity: 66%

Dew Point: 36 °F

Location of BredaLocation

Past Weather in Breda — Graph

°F

Breda Temperature Yesterday

Maximum temperature yesterday: 52 °F (at 12:25 am)
Minimum temperature yesterday: 41 °F (at 11:25 pm)
Average temperature yesterday: 48 °F

High & Low Weather Summary for the Past Weeks

 TemperatureHumidityPressure
High73 °F (Apr 9, 4:55 pm)100% (Apr 9, 2:25 am)30.63 "Hg (Apr 9, 2:25 am)
Low25 °F (Apr 20, 6:25 am)27% (Apr 9, 2:25 pm)29.89 "Hg (Apr 15, 6:25 am)
Average47 °F72%30.21 "Hg
* Reported Apr 8 8:17 am — Apr 23 8:25 am, Breda, Weather by CustomWeather, © 2017

Note: Actual official high and low records may vary slightly from our data, if they occured in-between our weather recording intervals... More about our weather records

Advertising

Breda Weather History for the Previous 24 Hours

Scroll right to see more
 ConditionsComfort  
Time TempWeatherWind HumidityBarometerVisibility
8:25 am
Sun, Apr 23
45 °FPartly sunny.7 mph71%30.30 "HgN/A
7:55 am43 °FHigh level clouds.7 mph76%30.30 "HgN/A
7:25 am41 °FPartly sunny.6 mph81%30.30 "HgN/A
6:55 am39 °FOvercast.5 mph87%30.30 "HgN/A
6:25 am41 °FPassing clouds.5 mph81%30.30 "HgN/A
5:55 am41 °FPartly cloudy.5 mph81%30.30 "HgN/A
5:25 am39 °FPassing clouds.6 mph87%30.30 "HgN/A
4:55 am36 °FMostly cloudy.5 mph93%30.30 "HgN/A
4:25 am37 °FOvercast.2 mph87%30.30 "HgN/A
3:55 am36 °FOvercast.2 mph93%30.30 "HgN/A
3:25 am37 °FOvercast.2 mph87%30.30 "HgN/A
2:55 am41 °FMostly cloudy.3 mph81%30.30 "HgN/A
2:25 am41 °FMostly cloudy.5 mph81%30.30 "HgN/A
1:55 am39 °FPassing clouds.3 mph81%30.30 "HgN/A
1:25 am41 °FOvercast.7 mph76%30.30 "HgN/A
12:55 am43 °FLight rain. Mostly cloudy.9 mph71%30.30 "HgN/A
12:25 am41 °FOvercast.7 mph76%30.30 "HgN/A
11:55 pm
Sat, Apr 22
43 °FMostly cloudy.9 mph71%30.30 "HgN/A
11:25 pm41 °FPartly cloudy.6 mph70%30.30 "HgN/A
10:55 pm43 °FPassing clouds.8 mph71%30.30 "HgN/A
10:25 pm45 °FOvercast.12 mph66%30.30 "HgN/A
9:55 pm43 °FPassing clouds.3 mph76%30.30 "HgN/A
9:25 pm45 °FPartly cloudy.7 mph71%30.30 "HgN/A
8:25 pm46 °FMostly cloudy.10 mph62%30.30 "HgN/A
7:55 pm46 °FPartly sunny.10 mph57%30.30 "HgN/A
7:25 pm48 °FBroken clouds.13 mph58%30.30 "HgN/A
6:55 pm48 °FBroken clouds.14 mph58%30.30 "HgN/A
6:25 pm48 °FOvercast.14 mph54%30.30 "HgN/A
5:55 pm50 °FMostly cloudy.16 mph54%30.30 "HgN/A
5:25 pm50 °FScattered clouds.14 mph50%30.30 "HgN/A
4:55 pm52 °FScattered clouds.14 mph47%30.30 "HgN/A
4:25 pm52 °FPartly sunny.14 mph50%30.30 "HgN/A
3:55 pm50 °FMore clouds than sun.15 mph54%30.30 "HgN/A
3:25 pm50 °FPartly sunny.10 mph71%30.33 "HgN/A
2:55 pm48 °FMostly cloudy.18 mph71%30.33 "HgN/A
2:25 pm50 °FBroken clouds.17 mph62%30.30 "HgN/A
1:55 pm52 °FPartly sunny.12 mph62%30.30 "HgN/A
1:25 pm52 °FPartly sunny.10 mph58%30.33 "HgN/A
12:55 pm52 °FBroken clouds.13 mph58%30.33 "HgN/A
12:25 pm52 °FMore clouds than sun.14 mph54%30.33 "HgN/A
11:55 am52 °FCloudy.14 mph54%30.33 "HgN/A
11:25 am52 °FPartly sunny.13 mph54%30.33 "HgN/A
10:55 am50 °FScattered clouds.10 mph62%30.33 "HgN/A
10:25 am50 °FPartly sunny.13 mph62%30.33 "HgN/A
Weather by CustomWeather, © 2017

See weather overviewHow to use our weather pages